This is the latest recevied weather packets stored in our database for station/object PA3BWK. If no packets are shown the sender has not sent any weather packets the latest 10 day(s).
| Time | Temp. | Humidity | Pressure | Rain* | Wind** | Luminosity | Snow |
|---|---|---|---|---|---|---|---|
| 1778332924 | 18.33° C | 47% | 1018.2 hPa | 0 mm | - | 874 W/m² | - |
| 1778332863 | 18.33° C | 48% | 1018.2 hPa | 0 mm | - | 454 W/m² | - |
| 1778332806 | 18.33° C | 50% | 1018.1 hPa | 0 mm | - | 691 W/m² | - |
| 1778332743 | 18.33° C | 47% | 1018.1 hPa | 0 mm | - | 856 W/m² | - |
| 1778332683 | 18.33° C | 49% | 1018.2 hPa | 0 mm | - | 855 W/m² | - |
| 1778332624 | 18.33° C | 47% | 1018.2 hPa | 0 mm | - | 862 W/m² | - |
| 1778332565 | 18.33° C | 47% | 1018.2 hPa | 0 mm | - | 647 W/m² | - |
| 1778332504 | 18.33° C | 47% | 1018.2 hPa | 0 mm | - | 311 W/m² | - |
| 1778332443 | 18.33° C | 48% | 1018.2 hPa | 0 mm | - | 285 W/m² | - |
| 1778332385 | 18.33° C | 47% | 1018.2 hPa | 0 mm | - | 255 W/m² | - |
| 1778332324 | 18.33° C | 49% | 1018.3 hPa | 0 mm | - | 456 W/m² | - |
| 1778332294 | 18.33° C | 47% | 1018.3 hPa | 0 mm | - | 303 W/m² | - |
| 1778332204 | 18.33° C | 47% | 1018.3 hPa | 0 mm | - | 598 W/m² | - |
| 1778332145 | 18.33° C | 48% | 1018.4 hPa | 0 mm | - | 860 W/m² | - |
| 1778332083 | 18.33° C | 47% | 1018.3 hPa | 0 mm | - | 463 W/m² | - |
| 1778332023 | 18.33° C | 48% | 1018.4 hPa | 0 mm | - | 253 W/m² | - |
| 1778331963 | 18.33° C | 48% | 1018.4 hPa | 0 mm | - | 355 W/m² | - |
| 1778331906 | 18.33° C | 47% | 1018.4 hPa | 0 mm | - | 591 W/m² | - |
| 1778331846 | 18.33° C | 49% | 1018.3 hPa | 0 mm | - | 501 W/m² | - |
| 1778331814 | 18.33° C | 48% | 1018.3 hPa | 0 mm | - | 401 W/m² | - |
| 1778331724 | 18.33° C | 48% | 1018.4 hPa | 0 mm | - | 688 W/m² | - |
| 1778331664 | 18.33° C | 48% | 1018.4 hPa | 0 mm | - | 630 W/m² | - |
| 1778331602 | 18.33° C | 48% | 1018.4 hPa | 0 mm | - | 369 W/m² | - |
| 1778331540 | 18.33° C | 48% | 1018.4 hPa | 0 mm | - | 630 W/m² | - |
| 1778331479 | 18.33° C | 48% | 1018.5 hPa | 0 mm | - | 870 W/m² | - |
* Rain latest hour (hover to see other rain measurements)
** Current wind speed in m/s (hover to see current wind gust speed)